Location: Starlight Observatory
(38.4029°N, 85.8936°W)
Time: 07:17:50
(UTC-04:00)

Amateur Radio Satellites - All Passes

Search period start: 24 October 2014 06:47
Search period end: 25 October 2014 06:47
Location: Starlight Observatory, 38.4029°N, 85.8936°W

Satellite Date Start Highest point End Downlink Frequencies (MHz)
Time Altitude Azimuth
STRAND 1 24 Oct 06:47:48 06:51:50 24° 66° (ENE) 06:55:54 ?
RS-15 24 Oct 07:14:34 07:24:57 42° 45° (NE) 07:35:40 29.354 - 29.394 USB, Beacon 29.352 USB
Uosat F 24 Oct 07:40:16 07:43:16 16° 297° (WNW) 07:46:16 435.120 FM
Hamsat 24 Oct 07:44:43 07:48:54 72° 284° (WNW) 07:53:05 145.90 MHz
JAS-2 24 Oct 07:51:12 07:58:51 63° 288° (WNW) 08:06:31 435.800 - 435.900 CW/SSB, 435.910 FM
SO-67 24 Oct 07:58:29 08:00:39 16° 94° (E) 08:02:49 435.3500 MHz FM
PANSAT 24 Oct 08:12:12 08:12:42 10° 163° (SSE) 08:13:13 not established
AO-7 24 Oct 08:14:02 08:19:41 21° 307° (NW) 08:25:20 29.400 - 29.500 MHz
STRAND 1 24 Oct 08:26:01 08:30:46 38° 262° (W) 08:35:34 ?
Saudisat 1A 24 Oct 08:38:04 08:42:25 73° 119° (ESE) 08:46:49 436.775 MHz
RS-15 24 Oct 09:26:51 09:37:47 61° 247° (WSW) 09:49:13 29.354 - 29.394 USB, Beacon 29.352 USB
SO-67 24 Oct 09:30:46 09:33:37 24° 288° (WNW) 09:36:27 435.3500 MHz FM
JAS-2 24 Oct 09:39:26 09:42:25 13° 306° (NW) 09:45:26 435.800 - 435.900 CW/SSB, 435.910 FM
MaSat-1 24 Oct 09:42:04 09:42:56 11° 54° (NE) 09:43:46 437.345 MHz
HO-68 24 Oct 09:47:57 09:53:57 28° 95° (E) 09:59:54 435.675 MHz FM
PANSAT 24 Oct 09:49:33 09:52:10 18° 175° (S) 09:54:47 not established
Saudisat 1A 24 Oct 10:20:08 10:22:29 14° 317° (NW) 10:24:51 436.775 MHz
UKube-1 24 Oct 10:51:15 10:55:08 31° 97° (E) 10:59:00 145.840 MHz, 145.915 MHz
MaSat-1 24 Oct 11:16:53 11:18:31 16° 254° (WSW) 11:20:05 437.345 MHz
PANSAT 24 Oct 11:29:16 11:31:42 16° 188° (S) 11:34:09 not established
FUNcube-1 24 Oct 11:29:42 11:33:29 31° 97° (E) 11:37:12 145.950 - 145.970 MHz USB
Oscar 11 24 Oct 11:33:02 11:37:21 90° 295° (WNW) 11:41:39 145.825 FM, Beacon 2401.500 USB
HO-68 24 Oct 11:34:58 11:41:53 53° 292° (WNW) 11:48:47 435.675 MHz FM
ZACube-1 24 Oct 12:20:46 12:24:59 62° 285° (WNW) 12:29:05 437.345 MHz
UKube-1 24 Oct 12:27:47 12:31:08 22° 293° (WNW) 12:34:28 145.840 MHz, 145.915 MHz
KITSAT 1 24 Oct 12:38:52 12:46:25 46° 110° (ESE) 12:54:00 435.175 FM
Sapphire 24 Oct 13:01:43 13:05:28 19° 47° (NE) 13:09:13 437.095 MHz 1200 baud AX-25 AFSK
FUNcube-1 24 Oct 13:06:34 13:09:39 20° 293° (WNW) 13:12:41 145.950 - 145.970 MHz USB
Oscar 19 24 Oct 13:06:43 13:09:19 14° 62° (ENE) 13:11:55 437.125 CW, 437.150 USB
ISS 24 Oct 13:09:22 13:12:19 30° 133° (SE) 13:15:17 145.800 FM
Oscar 10/S400 24 Oct 13:23:01 13:42:40 32° 152° (SSE) 13:59:43 145.825 - 145.975 CW/USB, Beacon 145.810 USB
PCSat 24 Oct 13:23:44 13:28:26 29° 52° (NE) 13:33:06 145.825 MHz
Oscar 16 24 Oct 13:49:52 13:54:35 37° 70° (ENE) 13:59:17 437.025 USB, Beacon 2401.1428
AO-Echo 24 Oct 13:50:37 13:53:53 18° 64° (ENE) 13:57:13 ?
SO-50 24 Oct 14:06:32 14:11:00 86° 301° (WNW) 14:15:38 436.795 FM
Uribyol 2 24 Oct 14:09:14 14:13:23 25° 66° (ENE) 14:17:33 436.500 FM
JAS-1B 24 Oct 14:10:33 14:16:19 49° 71° (ENE) 14:21:44 435.800 - 435.900 CW/SSB
ITAMSAT 1 24 Oct 14:15:01 14:19:16 26° 66° (ENE) 14:23:32 435.822 SSB
Gurwin Techsat 1B 24 Oct 14:32:39 14:36:25 20° 64° (ENE) 14:40:13 435.225 FM
KITSAT 1 24 Oct 14:34:21 14:41:51 41° 309° (NW) 14:49:25 435.175 FM
Oscar 19 24 Oct 14:42:54 14:48:02 70° 258° (WSW) 14:53:11 437.125 CW, 437.150 USB
Sapphire 24 Oct 14:44:00 14:49:24 68° 245° (WSW) 14:54:46 437.095 MHz 1200 baud AX-25 AFSK
TMSAT-1 24 Oct 14:44:21 14:47:59 19° 64° (ENE) 14:51:38 436.925 FM
ISS 24 Oct 14:46:02 14:48:59 29° 330° (NNW) 14:51:57 145.800 FM
AO-27 24 Oct 14:59:24 15:04:34 70° 74° (ENE) 15:09:46 436.795 MHz FM
PCSat 24 Oct 15:06:54 15:11:55 39° 250° (WSW) 15:16:53 145.825 MHz
AO-7 24 Oct 15:27:05 15:33:03 23° 55° (NE) 15:39:00 29.400 - 29.500 MHz
AO-Echo 24 Oct 15:27:31 15:32:12 49° 261° (W) 15:37:05 ?
Oscar 16 24 Oct 15:29:50 15:33:59 24° 265° (W) 15:38:09 437.025 USB, Beacon 2401.1428
UOSAT-12 24 Oct 15:32:33 15:37:06 65° 118° (ESE) 15:41:47 437.025 FM, 437.400 FM
Uribyol 2 24 Oct 15:47:46 15:52:36 39° 262° (W) 15:57:29 436.500 FM
SO-50 24 Oct 15:50:26 15:52:18 12° 320° (NW) 15:54:11 436.795 FM
ITAMSAT 1 24 Oct 15:53:47 15:58:33 36° 262° (W) 16:03:22 435.822 SSB
JAS-1B 24 Oct 16:03:03 16:07:16 20° 266° (W) 16:11:19 435.800 - 435.900 CW/SSB
Gurwin Techsat 1B 24 Oct 16:10:52 16:15:59 49° 260° (W) 16:21:09 435.225 FM
TMSAT-1 24 Oct 16:22:19 16:27:28 53° 260° (W) 16:32:39 436.925 FM
ISS 24 Oct 16:26:23 16:26:33 10° 349° (N) 16:26:43 145.800 FM
KITSAT 1 24 Oct 16:37:09 16:39:53 12° 335° (NNW) 16:42:37 435.175 FM
AO-27 24 Oct 16:42:18 16:44:33 13° 269° (W) 16:46:48 436.795 MHz FM
Saudisat 1A 24 Oct 17:06:15 17:10:23 37° 53° (NE) 17:14:29 436.775 MHz
Uosat F 24 Oct 17:11:42 17:16:41 70° 74° (ENE) 17:21:42 435.120 FM
UOSAT-12 24 Oct 17:14:39 17:17:42 17° 316° (NW) 17:20:47 437.025 FM, 437.400 FM
AO-7 24 Oct 17:16:38 17:24:54 81° 253° (WSW) 17:33:14 29.400 - 29.500 MHz
JAS-2 24 Oct 18:01:43 18:07:22 51° 70° (ENE) 18:13:46 435.800 - 435.900 CW/SSB, 435.910 FM
Hamsat 24 Oct 18:36:14 18:40:24 65° 76° (ENE) 18:44:34 145.90 MHz
Saudisat 1A 24 Oct 18:46:22 18:49:42 21° 249° (WSW) 18:53:00 436.775 MHz
OPAL 24 Oct 18:53:44 18:58:40 62° 103° (ESE) 19:03:32 ?
Uosat F 24 Oct 18:54:03 18:55:55 12° 269° (W) 18:57:49 435.120 FM
AO-7 24 Oct 19:15:01 19:18:47 14° 270° (W) 19:22:35 29.400 - 29.500 MHz
ISS 24 Oct 19:39:13 19:42:09 27° 30° (NNE) 19:45:03 145.800 FM
JAS-2 24 Oct 19:48:21 19:52:52 23° 270° (W) 19:57:48 435.800 - 435.900 CW/SSB, 435.910 FM
SO-67 24 Oct 20:01:02 20:04:27 78° 77° (ENE) 20:07:54 435.3500 MHz FM
HO-68 24 Oct 20:16:35 20:21:19 19° 57° (ENE) 20:26:02 435.675 MHz FM
KITSAT 1 24 Oct 20:34:00 20:39:42 20° 38° (NE) 20:45:21 435.175 FM
OPAL 24 Oct 20:34:13 20:37:00 15° 300° (WNW) 20:39:47 ?
STRAND 1 24 Oct 20:37:40 20:42:51 81° 103° (ESE) 20:47:59 ?
AO-40 24 Oct 21:12:06 23:26:57 34° 208° (SSW) 04:08:21 Beacon 2401.320
ISS 24 Oct 21:15:49 21:18:51 33° 226° (SW) 21:21:53 145.800 FM
RS-15 24 Oct 21:39:16 21:47:30 25° 102° (ESE) 21:55:36 29.354 - 29.394 USB, Beacon 29.352 USB
UKube-1 24 Oct 21:45:39 21:49:04 23° 68° (ENE) 21:52:31 145.840 MHz, 145.915 MHz
HO-68 24 Oct 22:01:00 22:08:09 81° 255° (WSW) 22:15:23 435.675 MHz FM
STRAND 1 24 Oct 22:19:20 22:21:19 12° 300° (WNW) 22:23:17 ?
FUNcube-1 24 Oct 22:24:39 22:28:17 24° 69° (ENE) 22:31:54 145.950 - 145.970 MHz USB
Oscar 11 24 Oct 22:26:21 22:30:35 57° 75° (ENE) 22:34:50 145.825 FM, Beacon 2401.500 USB
KITSAT 1 24 Oct 22:28:20 22:36:27 78° 60° (ENE) 22:44:31 435.175 FM
SO-50 24 Oct 22:39:25 22:44:12 57° 56° (NE) 22:49:00 436.795 FM
ZACube-1 24 Oct 23:14:59 23:19:35 85° 77° (ENE) 23:24:09 437.345 MHz
UKube-1 24 Oct 23:21:20 23:25:06 29° 263° (W) 23:28:54 145.840 MHz, 145.915 MHz
RS-15 24 Oct 23:47:32 23:58:35 79° 302° (WNW) 00:09:34 29.354 - 29.394 USB, Beacon 29.352 USB
HO-68 24 Oct 23:54:17 23:56:49 12° 271° (W) 23:59:22 435.675 MHz FM
FUNcube-1 25 Oct 00:00:26 00:04:29 31° 263° (W) 00:08:32 145.950 - 145.970 MHz USB
UOSAT-12 25 Oct 00:03:45 00:08:09 37° 52° (NE) 00:12:28 437.025 FM, 437.400 FM
Oscar 11 25 Oct 00:05:50 00:07:06 11° 269° (W) 00:08:22 145.825 FM, Beacon 2401.500 USB
SO-50 25 Oct 00:21:19 00:24:18 16° 251° (WSW) 00:27:18 436.795 FM
KITSAT 1 25 Oct 00:25:26 00:30:56 21° 258° (WSW) 00:36:26 435.175 FM
MaSat-1 25 Oct 00:50:27 00:54:39 73° 295° (WNW) 00:58:27 437.345 MHz
UOSAT-12 25 Oct 01:44:22 01:48:04 24° 249° (WSW) 01:51:44 437.025 FM, 437.400 FM
JAS-1B 25 Oct 01:55:48 01:59:53 16° 93° (E) 02:04:18 435.800 - 435.900 CW/SSB
RS-15 25 Oct 02:04:21 02:12:58 26° 329° (NNW) 02:21:40 29.354 - 29.394 USB, Beacon 29.352 USB
Oscar 16 25 Oct 02:04:30 02:07:11 14° 91° (E) 02:09:52 437.025 USB, Beacon 2401.1428
Oscar 10/S400 25 Oct 02:28:03 03:26:37 19° 246° (WSW) 05:31:10 145.825 - 145.975 CW/USB, Beacon 145.810 USB
Oscar 19 25 Oct 02:56:08 03:01:04 47° 99° (E) 03:05:58 437.125 CW, 437.150 USB
AO-27 25 Oct 03:14:31 03:18:59 28° 96° (E) 03:23:25 436.795 MHz FM
AO-Echo 25 Oct 03:35:47 03:41:04 62° 101° (E) 03:46:18 ?
Oscar 16 25 Oct 03:41:52 03:46:55 61° 287° (WNW) 03:51:57 437.025 USB, Beacon 2401.1428
Sapphire 25 Oct 03:42:48 03:46:32 19° 105° (ESE) 03:50:16 437.095 MHz 1200 baud AX-25 AFSK
JAS-1B 25 Oct 03:44:03 03:50:49 85° 285° (WNW) 03:58:58 435.800 - 435.900 CW/SSB
Uribyol 2 25 Oct 04:01:35 04:06:50 85° 104° (ESE) 04:12:01 436.500 FM
PCSat 25 Oct 04:04:03 04:08:50 33° 109° (ESE) 04:13:39 145.825 MHz
ITAMSAT 1 25 Oct 04:07:39 04:12:55 90° 284° (WNW) 04:18:07 435.822 SSB
RS-15 25 Oct 04:24:49 04:31:03 16° 5° (N) 04:37:22 29.354 - 29.394 USB, Beacon 29.352 USB
Gurwin Techsat 1B 25 Oct 04:28:23 04:33:43 76° 103° (ESE) 04:39:01 435.225 FM
OPAL 25 Oct 04:32:19 04:34:04 12° 58° (ENE) 04:35:50 ?
Oscar 19 25 Oct 04:36:24 04:40:02 20° 295° (WNW) 04:43:40 437.125 CW, 437.150 USB
TMSAT-1 25 Oct 04:39:31 04:44:50 71° 102° (ESE) 04:50:06 436.925 FM
AO-27 25 Oct 04:53:49 04:58:28 33° 292° (WNW) 05:03:04 436.795 MHz FM
AO-Echo 25 Oct 05:15:59 05:19:17 17° 297° (WNW) 05:22:35 ?
AO-7 25 Oct 05:20:13 05:27:50 38° 99° (E) 05:35:25 29.400 - 29.500 MHz
Uosat F 25 Oct 05:21:37 05:25:41 24° 95° (E) 05:29:42 435.120 FM
Sapphire 25 Oct 05:24:13 05:29:29 53° 302° (WNW) 05:34:48 437.095 MHz 1200 baud AX-25 AFSK
JAS-1B 25 Oct 05:37:21 05:40:46 15° 300° (WNW) 05:44:27 435.800 - 435.900 CW/SSB
Uribyol 2 25 Oct 05:43:45 05:45:32 12° 300° (WNW) 05:47:19 436.500 FM
PCSat 25 Oct 05:47:21 05:52:11 33° 306° (NW) 05:57:04 145.825 MHz
ITAMSAT 1 25 Oct 05:50:13 05:51:35 11° 301° (WNW) 05:52:57 435.822 SSB
OPAL 25 Oct 06:07:04 06:12:14 86° 254° (WSW) 06:17:21 ?
Gurwin Techsat 1B 25 Oct 06:10:26 06:13:00 14° 299° (WNW) 06:15:33 435.225 FM
STRAND 1 25 Oct 06:16:54 06:18:44 12° 60° (ENE) 06:20:34 ?
TMSAT-1 25 Oct 06:21:19 06:24:06 15° 298° (WNW) 06:26:53 436.925 FM
Hamsat 25 Oct 06:25:10 06:26:59 13° 91° (E) 06:28:49 145.90 MHz
